{"data":{"norad_id":67293,"intl_designator":"2025-313AX","name":"SCORPION (RS89S)","alt_names":[],"object_type":"PAYLOAD","status":"ACTIVE","operator":null,"country":"CIS","launch_date":"2025-12-28","launch_site_code":"VOSTO","launch_vehicle":null,"mission":null,"orbit_class":"UNKNOWN","rcs_meters":null,"size_class":null,"mass_kg":null,"dimensions":null,"purposes":[],"wikipedia_slug":null,"has_3d_model":false,"image_url":null,"decayed_at":null,"tle_current":{"epoch":"2026-05-25T03:33:35.400096Z","epoch_age_seconds":65304,"freshness":"FRESH","line1":"1 67293U 25313AX  26145.14832639  .00003949  00000+0  17260-3 0  9998","line2":"2 67293  97.3940 220.2717 0012550  72.8857 287.3753 15.22600928 22455","mean_motion":15.22600928,"eccentricity":0.001255,"inclination_deg":97.394,"raan_deg":220.2717,"arg_perigee_deg":72.8857,"mean_anomaly_deg":287.3753,"bstar":0.0001726,"rev_number":2245,"period_min":94.575011319053,"perigee_km":489.36929233972,"apogee_km":506.62839330521,"semimajor_km":6876.1358428225,"source":"CELESTRAK","updated_at":"2026-05-25T13:38:06.881814Z"}}}